ECMWFFLT1_700_spd_021.txt.gz
Wind_Speed
2 1 4 6 8 10 12 13 14 15 15 15 14 13 11 10 7 6 6 7 7 8 8 8 8 8 9 9 9 8 8 8 9 11 10 9 10 10 8 7 6 5 4 5 7 7 6 4 3 3 4 5 6 6 7 7 7 7 7 7 8 8 8
3 1 3 5 7 8 10 12 14 14 15 15 14 14 11 10 9 7 6 6 7 7 7 7 6 7 9 9 9 8 8 9 10 11 10 9 9 9 8 7 6 4 4 6 6 4 4 4 2 4 5 4 5 5 5 5 5 5 5 6 6 7 8
4 3 5 6 6 7 9 11 13 14 15 15 14 14 12 11 9 8 6 6 6 5 5 5 5 6 7 8 8 8 8 8 8 8 8 8 8 8 7 6 6 5 5 5 4 4 4 3 2 3 4 3 3 3 3 3 3 4 4 4 5 5 6
7 6 7 7 7 8 9 10 12 13 14 14 14 13 12 11 10 8 7 7 5 5 5 5 5 4 4 6 7 7 7 6 6 6 6 7 8 8 6 6 6 7 7 6 4 4 3 2 2 2 2 2 1 2 2 3 3 3 3 3 4 4 5
10 8 9 9 9 9 10 11 12 13 13 14 14 13 12 11 10 8 7 6 4 5 6 7 6 6 4 5 6 7 6 5 5 5 6 7 8 7 7 7 7 7 7 7 6 5 4 4 3 2 1 1 1 1 2 3 4 4 5 6 6 6 6
12 11 10 11 11 11 11 12 12 13 14 14 13 13 13 11 9 7 6 6 5 6 8 8 9 8 8 7 7 7 7 6 6 6 7 8 9 10 9 9 9 8 8 8 7 8 6 5 6 5 2 2 1 2 2 3 4 5 6 6 7 7 6
15 14 14 15 14 13 12 12 13 14 14 14 14 14 14 12 9 7 6 6 6 7 8 9 10 10 10 10 10 9 9 9 9 10 10 11 11 11 10 10 9 8 9 8 8 8 7 7 9 9 5 3 2 2 2 2 3 3 4 4 4 4 4
17 17 18 19 19 17 14 13 14 15 15 15 16 15 14 12 10 8 6 7 7 8 8 9 10 11 12 11 11 11 10 10 11 11 11 11 11 9 9 9 9 8 8 8 8 8 9 9 9 10 7 5 6 6 4 1 3 3 3 3 3 3 4
19 19 19 19 19 18 14 13 15 15 15 17 17 15 13 12 10 8 7 8 8 9 9 9 10 11 12 12 11 11 11 11 11 11 10 10 10 9 9 8 8 9 8 8 8 8 9 9 8 9 8 7 7 3 3 3 2 2 3 3 3 3 3
20 20 19 18 19 19 16 14 15 16 14 15 15 13 14 12 10 8 8 9 9 10 10 10 10 11 12 12 11 12 12 12 12 12 12 12 11 10 10 10 9 10 9 9 8 8 7 7 8 8 6 8 7 2 4 2 1 2 2 3 4 4 4
19 20 19 19 20 20 18 16 16 16 13 12 12 12 14 12 10 9 9 9 9 10 10 10 10 11 12 12 12 13 14 14 14 14 13 13 12 11 11 10 10 10 9 8 8 7 7 6 6 5 3 8 11 5 2 6 4 3 3 5 5 6 6
19 18 17 17 18 17 17 15 14 15 16 16 16 14 13 12 10 9 9 9 9 10 10 10 11 11 12 13 13 14 14 14 14 14 13 13 12 11 10 9 9 9 7 6 5 5 5 4 4 4 3 5 7 6 6 8 5 4 5 6 7 9 10
18 17 15 15 16 16 17 15 15 18 20 21 19 14 12 12 10 9 9 9 10 10 10 10 11 11 12 12 12 13 13 13 13 12 12 11 10 9 9 7 7 6 5 4 3 2 2 1 1 1 1 1 2 3 4 6 6 6 8 9 10 11 12
14 14 14 15 16 18 20 18 17 19 22 23 20 15 14 13 11 11 11 11 10 10 10 10 10 10 10 10 10 10 11 11 11 10 10 9 8 7 7 6 5 4 3 3 3 2 2 2 3 4 5 4 4 5 7 9 10 10 9 10 11 12 11
10 10 11 13 15 17 19 17 16 18 20 20 17 17 17 14 13 13 13 12 11 11 11 10 9 9 8 7 7 7 7 8 8 8 7 6 6 5 5 5 4 4 4 5 5 5 5 5 5 6 6 5 5 7 8 10 11 10 11 11 11 11 11
8 8 9 10 12 14 14 12 13 16 15 12 13 18 19 16 15 15 15 14 13 12 11 10 9 8 7 6 6 5 5 5 5 5 5 5 5 5 5 5 5 5 6 6 7 8 8 6 4 6 7 7 7 8 9 9 8 9 12 12 12 12 12
8 8 8 9 10 11 10 9 11 11 11 14 17 18 19 18 17 17 16 16 15 14 13 11 11 10 8 7 7 7 6 6 6 7 7 7 7 7 7 7 7 7 7 8 9 10 10 9 8 9 9 10 10 10 9 8 8 10 12 13 14 15 16
8 8 9 9 9 10 9 10 11 12 15 18 18 19 21 20 19 19 18 18 17 16 14 14 13 12 10 10 10 10 10 9 10 10 10 10 10 10 9 9 9 8 8 9 9 10 10 10 11 12 11 9 9 9 8 8 10 11 12 14 17 18 19
9 9 10 10 10 10 9 9 11 15 18 18 19 21 22 22 21 20 21 20 19 19 17 16 16 15 14 13 13 13 13 13 13 14 14 13 13 13 13 12 12 11 10 10 9 9 10 10 11 12 12 10 8 9 10 10 11 12 12 14 17 20 22
9 9 9 10 11 10 10 9 12 17 19 19 21 23 23 24 23 23 23 23 22 22 21 20 20 18 17 17 17 17 17 16 17 17 17 17 17 17 17 16 14 13 11 11 10 10 11 11 11 11 11 10 11 13 12 12 12 14 14 14 17 19 21
9 9 9 10 10 10 10 11 13 17 20 20 21 23 25 26 26 26 26 26 25 25 24 24 23 22 21 20 20 21 21 21 21 20 20 21 21 20 19 18 16 15 14 13 12 12 12 13 12 12 11 12 13 13 12 12 13 14 14 16 18 19 21
11 10 10 10 10 10 11 13 14 17 19 20 21 23 26 28 29 29 29 28 28 28 27 27 26 25 25 24 23 24 25 24 24 23 23 23 24 24 23 21 19 17 16 16 16 14 13 13 12 11 12 12 13 13 13 13 15 15 15 17 18 17 20
11 11 11 11 12 12 13 14 16 17 19 21 22 24 27 29 31 32 32 32 32 31 30 30 29 28 28 27 26 27 27 27 26 26 26 26 27 28 27 22 20 19 20 20 20 17 14 13 12 12 12 13 13 13 14 15 16 16 17 18 18 17 19
11 12 12 13 14 14 14 15 16 19 21 22 23 25 27 30 33 34 34 34 34 34 34 33 32 31 31 31 31 30 30 29 29 30 29 29 30 32 30 26 23 22 22 21 18 15 14 13 13 13 13 14 14 14 16 17 17 18 18 18 19 20 22
13 13 13 14 15 16 16 15 16 19 21 23 25 28 29 31 34 36 36 37 38 38 37 36 35 35 35 34 34 33 32 32 33 33 33 32 32 33 32 29 26 24 22 19 15 13 13 14 14 15 15 15 16 16 17 18 19 20 20 20 19 21 24
15 15 15 15 16 17 16 15 16 17 18 21 25 28 30 32 35 37 38 39 41 41 40 38 38 38 38 37 37 36 35 36 37 37 37 36 36 37 36 33 31 26 21 17 15 15 15 16 16 17 17 17 18 18 19 19 20 21 22 22 22 23 24
16 16 15 15 15 15 15 15 16 17 18 19 21 24 27 30 35 38 40 41 43 44 43 42 42 41 40 40 40 39 39 41 43 42 41 41 39 37 37 34 30 25 20 17 16 17 17 17 18 18 18 18 19 20 21 21 21 22 23 24 24 26 27
15 15 15 14 14 14 14 16 17 19 20 20 20 22 24 25 28 32 36 39 40 39 40 43 45 45 44 44 44 43 42 44 46 45 44 42 38 34 32 29 26 23 20 18 19 19 19 18 18 19 19 20 21 22 23 23 24 24 25 26 27 29 30
16 16 15 15 15 16 17 18 19 21 22 23 23 25 26 25 23 24 28 31 32 31 32 34 37 39 43 45 45 44 44 46 48 48 46 41 35 31 28 26 24 23 21 20 21 20 20 19 19 20 21 22 23 24 24 25 26 27 27 28 29 31 32
18 18 18 18 19 20 21 21 22 23 24 25 26 27 28 28 27 26 27 28 28 29 30 30 29 30 35 40 43 45 46 48 49 48 44 37 31 28 27 26 25 22 21 22 22 20 20 20 21 22 23 24 25 26 26 27 28 28 29 30 31 32 34
22 21 22 22 23 24 24 24 25 25 26 27 28 29 30 31 31 31 31 30 30 31 31 30 27 27 30 33 36 39 43 44 43 42 38 33 29 29 28 26 23 21 21 23 22 20 21 22 23 24 25 26 28 28 28 27 28 29 30 31 32 34 35
25 25 26 27 28 28 28 28 28 28 28 29 30 32 33 33 33 33 32 32 32 32 33 31 28 28 29 30 31 33 36 38 38 37 36 33 31 31 27 22 20 21 23 23 22 21 22 23 24 26 27 27 29 30 29 28 29 31 32 32 34 35 36
29 29 30 30 32 32 32 32 31 31 32 32 32 34 35 35 35 34 34 34 33 33 34 32 30 29 29 31 32 32 34 37 38 37 36 34 32 29 24 19 20 23 23 23 22 22 23 24 25 26 27 27 28 30 31 30 30 31 33 35 36 38 39
33 34 34 34 35 35 34 34 34 34 34 34 34 35 35 35 36 35 36 36 35 33 33 33 31 29 30 33 33 34 37 38 35 33 34 33 28 23 19 19 22 24 24 23 23 23 23 24 25 26 27 28 28 28 30 31 31 32 34 36 38 40 41
36 36 36 35 35 35 34 34 35 35 35 35 35 35 36 35 35 35 35 35 34 33 33 33 30 29 31 33 34 37 42 40 34 32 34 30 23 19 18 21 24 24 24 24 23 23 24 25 26 27 27 27 28 28 30 32 33 34 36 38 40 41 42
39 39 39 38 38 38 38 37 37 37 36 36 36 36 36 36 36 35 35 36 35 33 33 32 30 29 31 31 32 39 43 38 32 30 28 23 20 20 20 23 25 24 24 23 23 24 25 26 27 27 28 27 28 29 30 32 34 36 38 40 41 42 42
44 44 45 45 45 45 45 43 42 41 40 40 40 39 38 38 38 37 37 37 36 34 33 31 28 28 30 30 30 34 35 29 24 22 20 21 24 23 22 24 25 24 24 24 24 25 26 27 28 28 28 28 29 30 32 34 36 38 40 41 42 42 42

ECMWFFLT1_700_spd_024.txt.gz
Wind_Speed
3 4 5 5 5 6 7 9 10 11 12 12 12 12 10 8 7 6 5 3 2 4 6 7 7 7 8 7 6 6 6 5 6 7 7 8 8 8 9 8 7 8 8 7 7 8 9 9 7 4 4 3 3 4 3 3 4 5 7 7 6 5 4
7 8 8 6 5 5 6 8 9 11 12 12 13 13 12 11 9 7 5 5 4 3 6 8 8 7 7 7 7 8 7 6 8 8 7 7 7 7 8 8 8 7 7 7 8 8 8 8 7 5 4 3 3 2 2 2 3 3 4 5 4 3 3
8 9 9 7 6 6 6 7 9 11 12 12 13 13 13 13 12 10 7 6 4 3 4 5 7 6 6 7 9 9 9 9 10 9 7 6 7 7 8 9 9 8 7 7 8 7 8 8 6 5 4 3 3 2 1 1 1 1 1 3 3 4 3
9 9 9 9 8 8 8 9 9 10 11 12 13 13 13 14 15 13 9 7 4 2 4 5 6 6 5 6 8 9 9 9 10 10 8 8 8 8 7 8 8 7 7 8 8 7 7 6 3 4 5 5 3 2 1 1 1 1 1 2 3 4 3
10 10 9 9 9 9 10 11 11 11 11 11 12 13 14 15 16 15 12 8 5 1 4 5 5 6 6 6 7 9 9 9 9 9 9 9 10 8 8 9 9 9 9 12 10 7 5 3 3 3 5 4 3 2 1 1 2 2 3 3 3 4 3
12 11 10 9 10 10 11 13 13 13 11 10 11 12 14 15 15 16 14 10 6 2 5 6 6 7 7 6 7 8 8 9 9 10 10 11 12 11 12 13 11 11 11 10 10 8 5 3 0 1 3 2 3 2 0 1 2 3 5 5 5 5 5
15 14 12 11 12 12 13 14 14 15 12 9 10 11 13 13 14 15 14 12 7 3 4 6 7 7 7 7 7 7 8 9 9 10 11 13 13 12 13 12 10 10 10 9 11 11 10 9 8 6 8 1 6 8 4 3 5 6 6 6 6 7 7
17 16 13 12 12 13 14 14 14 14 12 9 9 10 11 11 12 14 14 12 9 5 4 6 7 7 7 7 7 7 8 9 9 9 9 10 12 11 11 11 10 11 12 11 13 13 14 16 15 14 9 5 10 7 2 1 5 6 5 6 6 6 6
18 16 13 11 13 14 14 15 15 13 12 11 10 9 8 8 10 12 13 12 9 6 5 5 6 6 8 8 8 8 8 8 8 8 9 10 11 11 11 12 11 12 11 11 12 13 14 16 14 10 5 10 11 8 4 5 2 4 4 5 5 5 5
15 14 12 11 13 14 16 17 16 14 13 12 11 10 8 8 9 10 12 11 8 6 4 4 5 5 7 8 7 7 7 7 8 9 10 11 11 11 11 11 11 11 10 9 9 8 9 11 12 11 9 7 8 5 2 2 1 2 2 3 3 3 2
13 12 11 12 13 15 16 16 15 13 13 13 14 13 12 12 10 9 10 9 8 6 4 4 5 6 7 8 7 8 8 8 9 10 10 10 10 10 10 10 10 11 12 11 10 9 8 7 10 11 8 8 10 7 5 4 3 1 1 1 1 1 0
13 13 12 13 14 14 14 13 12 12 12 14 15 14 14 12 9 6 7 7 6 5 4 4 5 6 7 8 8 8 9 9 10 10 10 11 11 11 11 12 12 13 12 11 10 10 9 8 7 6 5 8 12 9 6 6 4 4 3 3 4 4 4
13 12 13 14 14 14 13 13 13 13 13 14 15 15 13 9 6 4 5 6 5 4 4 4 4 5 7 8 8 9 9 10 10 11 11 11 11 12 11 11 11 11 10 10 9 8 7 6 5 4 4 7 10 7 5 6 6 7 6 5 5 6 7
14 14 14 14 13 12 12 12 12 12 13 15 15 14 10 7 7 5 5 6 5 4 4 4 4 5 6 7 7 8 9 9 10 10 10 10 10 10 10 9 8 8 7 6 5 5 4 3 3 3 4 7 9 8 9 9 8 8 8 7 7 7 8
14 13 12 11 10 10 10 9 10 11 13 14 14 13 7 10 10 7 7 7 6 6 5 5 5 5 6 6 6 6 7 8 9 9 9 9 8 8 7 6 5 4 3 2 1 1 2 3 5 5 6 7 8 9 10 10 10 9 8 7 8 8 8
11 10 8 8 8 8 8 8 8 9 11 11 12 11 6 13 12 9 9 9 8 8 7 7 6 6 6 6 6 5 5 6 7 7 6 6 5 4 4 3 2 1 2 3 3 3 4 6 8 8 7 6 6 7 8 9 11 11 11 11 11 11 9
9 7 6 7 8 7 7 7 8 8 10 9 9 6 6 14 13 11 11 11 10 9 9 8 7 7 7 7 6 5 5 6 5 4 4 3 3 3 3 4 4 4 5 5 6 6 6 9 10 9 9 10 9 8 8 9 11 11 12 13 13 14 13
8 7 8 8 8 8 7 7 7 8 8 7 6 3 8 13 12 11 12 12 12 11 10 9 9 9 9 8 7 6 7 7 5 5 6 6 6 7 7 7 7 7 8 8 8 8 7 9 11 10 10 12 12 10 9 10 11 11 12 13 13 14 15
9 9 10 9 8 8 7 7 7 7 6 6 6 5 9 12 12 12 13 14 14 13 12 12 12 12 11 11 10 9 9 10 9 9 10 9 10 11 11 12 11 11 11 11 11 11 9 9 10 11 10 11 14 13 8 8 11 12 12 12 13 14 15
12 11 10 9 9 8 7 7 7 6 6 6 7 8 10 12 13 14 16 17 17 16 16 16 16 15 14 14 14 13 13 12 13 13 13 13 14 14 14 14 14 13 14 14 14 14 13 11 11 12 11 11 14 15 11 9 10 12 12 12 14 15 16
12 12 10 9 9 8 8 7 7 7 6 6 8 10 12 13 14 16 17 18 19 20 19 19 20 19 18 18 18 17 16 15 16 17 17 18 19 18 16 16 16 17 17 17 16 15 14 14 13 14 13 13 14 14 13 11 11 11 12 12 15 16 17
13 12 11 9 8 8 8 7 8 8 8 7 9 11 13 15 16 18 20 20 22 23 22 23 23 22 22 22 21 20 19 19 20 21 21 22 22 21 19 19 19 20 20 19 19 18 17 16 16 17 17 15 14 13 13 12 12 13 13 13 15 17 18
14 12 11 10 9 9 9 9 9 10 9 9 10 12 14 16 18 20 22 23 24 25 26 26 26 26 26 25 25 24 23 24 25 25 24 25 25 25 24 23 22 22 23 23 23 22 21 20 19 19 19 16 14 14 14 13 14 15 15 15 16 18 19
15 14 13 12 11 10 11 11 12 12 12 12 12 14 15 17 19 20 22 24 27 28 29 29 29 28 28 28 28 27 27 27 28 29 28 28 28 28 28 27 26 25 26 27 27 26 25 23 22 20 20 18 16 16 15 15 15 16 16 16 17 19 20
16 15 15 15 14 12 12 12 14 14 15 15 16 16 17 19 21 22 22 23 26 29 31 32 32 31 30 31 31 31 31 31 31 32 33 33 33 33 33 32 32 31 31 30 29 28 27 26 22 20 19 18 17 16 16 16 17 17 18 18 19 20 21
17 17 17 17 16 15 14 14 15 16 17 18 19 19 19 20 21 22 23 24 27 30 31 31 31 32 33 34 35 35 34 34 34 35 36 37 37 39 38 37 38 38 36 33 32 32 31 26 21 18 17 17 16 17 17 17 18 19 19 20 20 21 21
18 18 18 18 17 17 16 15 16 16 17 18 18 17 18 19 19 20 22 26 30 32 32 31 32 32 32 33 35 37 38 38 38 38 38 39 41 42 41 41 42 42 40 36 34 33 28 22 19 19 18 18 18 18 18 18 18 20 20 21 21 22 21
19 17 16 17 16 15 15 14 14 14 14 14 14 15 17 17 18 19 21 24 27 28 30 31 31 32 32 33 35 38 40 41 42 41 41 42 43 43 43 45 45 44 42 38 35 32 25 19 19 20 20 19 19 18 18 19 19 20 21 21 22 22 21
19 17 16 17 16 16 16 15 15 15 16 16 17 18 19 19 19 21 23 24 24 25 27 27 26 27 30 32 34 36 37 39 41 42 44 45 45 44 45 46 46 46 43 39 35 31 24 20 20 22 21 20 20 19 20 20 20 21 21 21 21 21 20
18 17 17 18 19 19 19 18 18 19 19 21 22 23 23 24 24 24 25 26 27 27 28 27 26 25 26 28 30 32 33 34 34 37 42 45 45 45 47 46 46 46 42 38 32 27 22 20 22 23 22 21 21 20 20 20 21 21 21 20 20 20 21
19 19 19 20 21 22 21 20 21 22 23 25 26 26 28 29 28 28 29 30 30 29 29 29 29 28 27 28 30 31 31 31 31 34 38 41 41 43 44 44 45 42 37 33 28 23 21 22 23 23 22 22 22 21 20 21 21 20 20 20 21 22 22
22 21 21 22 23 24 24 24 25 26 27 28 29 29 31 32 32 32 32 32 31 31 30 31 31 31 30 30 31 31 33 33 32 33 36 37 39 41 42 43 43 39 33 30 25 22 22 24 24 23 23 22 22 20 19 20 21 20 21 21 22 23 24
23 23 24 25 26 27 28 29 29 31 31 32 33 33 33 34 34 34 34 33 33 33 33 33 33 32 32 32 32 33 35 36 34 35 36 37 39 41 40 40 41 36 33 32 27 23 24 25 24 23 23 22 23 22 20 20 21 22 22 22 23 25 26
26 27 27 28 30 31 32 33 34 35 35 36 36 37 36 36 35 36 36 36 37 37 35 34 34 33 32 32 32 34 36 36 35 35 36 37 39 40 39 40 41 36 32 33 30 26 24 25 23 23 22 21 22 22 22 22 23 24 24 24 25 27 28
29 31 32 33 34 35 35 36 37 38 38 38 38 38 38 38 37 37 37 38 39 39 37 35 34 34 33 32 32 34 35 35 33 34 36 36 38 40 41 42 40 34 30 30 29 25 23 23 22 21 20 20 20 21 22 23 24 25 25 26 27 29 30
34 35 37 38 39 39 39 39 39 39 39 39 39 39 39 38 38 38 38 37 37 38 39 39 37 34 32 32 32 33 34 35 34 33 35 36 38 42 42 38 33 32 31 28 25 22 21 20 20 19 18 18 19 20 22 25 26 26 26 28 29 31 31
37 38 39 40 41 41 42 42 42 42 41 41 41 41 40 40 40 41 41 40 39 40 42 44 43 39 36 35 34 33 33 34 34 32 33 34 36 39 39 31 24 24 24 22 20 20 20 19 19 19 18 18 20 21 23 25 26 27 27 29 30 31 32

ECMWFFLT1_700_spd_030.txt.gz
Wind_Speed
8 6 6 6 6 6 7 7 7 6 5 5 5 4 3 3 4 3 1 1 4 7 8 9 10 12 13 14 15 14 14 14 13 13 12 12 12 12 11 11 13 14 11 9 9 9 9 8 8 7 7 6 6 6 5 5 6 7 8 9 8 6 5
11 9 7 5 5 6 6 6 5 4 3 3 4 3 2 2 3 3 2 1 1 3 6 7 9 11 12 13 14 14 14 13 13 13 12 12 12 11 10 11 14 14 11 10 11 11 10 9 8 8 7 7 7 7 6 6 6 6 8 7 6 4 3
14 11 8 6 6 6 6 5 3 2 2 2 2 2 1 1 1 2 2 1 0 2 5 7 9 11 12 13 13 13 12 12 13 12 11 12 12 11 10 12 14 13 10 9 10 11 9 8 8 8 8 8 8 8 7 6 5 6 7 5 3 3 2
13 10 8 7 7 6 5 3 2 2 2 2 2 2 2 2 3 2 1 1 1 2 5 7 9 11 12 13 13 13 13 12 11 11 11 10 10 10 10 12 13 12 9 8 9 8 7 7 7 8 8 9 8 8 7 5 6 7 6 5 4 3 3
12 10 9 7 6 5 3 2 2 3 4 4 4 4 3 3 4 4 2 1 2 3 4 6 8 10 11 11 11 11 11 11 11 11 10 10 10 10 11 12 12 12 10 10 9 8 8 9 8 8 9 8 7 7 7 7 8 8 6 5 4 3 2
13 11 10 7 6 4 2 2 4 4 4 4 5 5 4 4 5 6 5 4 3 3 5 6 8 10 10 9 8 7 8 9 11 11 11 11 11 11 12 12 12 12 12 12 11 10 10 10 10 9 9 8 7 7 7 8 8 7 5 4 4 3 2
14 12 10 7 6 4 4 4 5 5 4 4 5 5 4 4 5 6 6 5 3 4 5 7 8 9 10 9 8 7 7 8 9 10 10 10 10 11 12 12 12 12 12 12 12 12 11 10 10 9 8 8 7 7 8 8 7 5 4 3 3 3 3
15 13 11 9 7 6 5 5 6 7 6 5 5 5 4 4 5 6 6 5 4 4 5 7 8 8 9 9 7 7 7 7 8 8 8 8 8 9 10 11 11 11 10 10 10 11 11 10 9 9 8 8 7 7 8 9 7 6 5 4 3 3 3
17 15 13 10 8 7 7 7 7 8 7 6 5 5 4 4 5 6 6 5 4 5 6 6 7 8 8 9 8 7 7 6 6 5 5 5 6 7 8 9 9 8 8 9 9 9 10 10 9 9 7 6 6 6 8 9 10 9 8 6 3 3 3
18 16 13 11 9 8 8 7 7 6 5 5 4 4 5 5 5 6 6 5 5 6 7 7 8 9 9 9 8 7 7 6 5 5 4 4 6 7 7 7 8 7 7 9 9 8 9 9 8 6 2 3 5 6 7 9 10 9 8 7 4 3 2
19 16 13 11 10 8 7 7 7 6 4 4 3 4 5 5 6 6 6 6 6 7 8 8 9 10 10 10 9 7 6 6 6 5 5 5 6 7 7 8 9 8 8 9 9 7 7 6 4 3 2 3 5 7 8 9 9 7 6 4 3 3 2
19 16 13 11 10 8 7 7 8 7 6 6 4 4 5 5 6 6 6 7 7 8 8 8 9 10 11 10 9 7 6 5 6 6 7 7 8 9 10 10 10 9 8 8 8 6 5 3 1 1 1 2 4 7 9 9 8 6 4 4 5 5 4
17 14 12 11 10 8 7 8 9 8 7 6 5 5 6 6 6 6 7 7 8 8 8 8 9 9 10 9 9 8 7 7 7 8 9 9 10 11 11 12 11 10 8 8 7 6 4 4 3 2 1 1 2 6 7 6 5 4 5 6 6 6 6
15 13 11 11 11 10 9 9 9 8 8 6 5 6 7 7 7 7 8 8 9 9 8 8 8 9 9 8 8 7 7 7 8 8 8 8 9 10 11 11 11 10 9 8 7 6 5 4 3 2 2 3 2 2 3 3 3 4 6 7 7 7 8
14 13 12 12 12 11 10 10 9 8 8 7 5 6 7 7 8 9 10 10 10 10 9 9 9 9 9 8 8 8 8 8 7 8 8 9 10 11 11 10 10 9 9 8 7 6 5 3 2 3 4 5 6 6 6 6 7 8 9 10 10 9 9
14 14 13 13 13 12 10 9 8 8 7 6 5 6 7 8 11 12 11 11 11 11 11 11 11 11 10 10 9 9 9 9 9 9 9 9 10 10 11 11 10 9 9 8 7 6 5 3 3 3 5 6 7 8 9 9 10 10 12 13 13 12 11
15 15 15 14 13 11 9 8 7 7 6 5 5 5 5 10 14 13 12 12 12 12 12 12 12 12 12 12 11 10 10 11 11 11 11 10 9 9 10 10 9 9 7 6 5 4 4 3 3 5 6 7 9 9 10 10 11 12 13 14 15 14 13
19 18 16 13 11 9 8 8 7 6 5 4 3 3 4 12 15 14 13 13 12 12 12 12 12 13 13 13 12 13 12 12 12 12 11 10 9 9 8 8 7 6 5 5 4 4 4 4 5 6 7 8 9 10 10 11 12 12 13 13 14 14 13
20 18 15 12 10 9 10 9 7 6 4 4 3 2 7 14 15 14 14 13 12 12 12 12 12 12 13 12 13 13 13 13 13 12 10 9 9 8 7 6 6 5 5 6 6 6 6 6 7 8 9 10 11 11 12 13 14 14 14 14 14 14 15
15 12 11 12 11 11 11 9 8 6 5 5 6 6 8 13 15 14 14 13 13 12 12 12 12 12 12 12 12 12 13 13 12 10 9 9 8 7 6 5 5 6 7 7 8 8 8 8 8 9 10 11 13 14 15 16 17 18 18 17 17 17 18
12 11 12 13 12 11 11 10 9 7 7 7 8 7 8 11 13 13 12 12 12 12 12 12 11 11 12 12 11 11 11 11 11 10 10 9 8 7 6 6 7 7 8 9 9 10 10 10 11 11 12 13 14 16 17 18 19 20 21 22 22 22 22
14 14 14 14 12 11 12 12 10 9 8 8 8 9 9 10 11 11 11 12 12 12 12 12 11 11 11 11 11 12 11 11 11 11 11 11 10 9 9 9 10 10 11 12 12 12 13 14 14 15 16 17 17 18 19 20 21 21 23 24 25 26 25
16 17 16 15 14 13 13 13 11 10 9 9 9 11 11 12 12 11 12 12 12 12 12 12 12 12 12 12 12 13 13 13 14 14 14 14 14 14 13 13 14 15 15 15 15 16 16 17 18 19 19 20 21 22 22 22 23 24 25 26 27 27 27
16 18 17 15 14 13 13 13 12 11 11 11 11 12 13 14 14 14 14 14 14 14 14 13 14 14 15 15 15 16 16 17 18 18 18 18 18 18 18 18 19 19 20 20 19 19 20 21 21 22 22 23 24 24 25 25 25 26 26 28 28 28 27
17 20 20 17 15 14 12 12 12 11 12 12 13 13 13 14 15 16 16 16 15 15 15 15 16 16 17 17 18 19 20 21 21 21 22 22 22 23 23 23 23 24 24 24 23 23 23 23 24 24 25 25 26 27 27 27 27 26 27 28 29 30 30
20 22 22 20 20 20 18 16 16 15 13 12 12 13 13 14 16 16 17 16 16 16 16 17 18 18 19 20 20 21 21 21 22 22 22 23 24 25 26 26 26 26 26 27 27 26 26 26 27 27 27 28 29 29 29 28 27 27 27 28 29 31 32
22 23 23 23 24 25 24 23 21 19 17 14 13 12 12 13 15 16 15 14 14 15 16 17 18 19 19 20 21 22 22 23 24 24 24 24 24 25 26 27 27 28 29 29 29 28 29 29 29 29 29 30 30 30 30 29 27 26 27 28 29 30 31
24 23 23 24 25 26 25 23 21 18 16 16 15 15 15 16 17 17 16 14 13 13 14 15 16 17 18 18 19 21 21 22 22 23 24 25 26 27 27 28 28 29 29 30 30 30 30 30 31 31 31 31 31 31 30 29 28 28 27 27 28 28 29
23 23 23 23 23 22 21 20 18 16 15 15 15 15 16 17 18 18 17 17 16 15 15 16 16 16 17 17 19 20 20 20 21 21 22 23 25 27 28 29 29 29 30 31 30 30 30 31 31 32 32 31 32 32 31 31 31 31 30 29 29 29 30
22 22 22 21 21 21 20 19 18 18 18 18 18 18 18 19 19 19 19 18 18 17 17 17 18 18 18 19 20 21 22 24 24 24 24 25 25 26 27 28 28 29 29 28 28 30 31 32 31 31 32 33 34 34 33 32 32 33 32 31 30 31 31
22 23 23 21 21 21 21 21 20 20 20 20 21 21 22 22 22 23 22 22 22 21 20 21 21 21 21 21 22 23 25 27 28 28 28 29 30 29 30 30 29 28 28 27 29 32 33 33 32 32 33 35 35 34 34 34 33 32 30 30 31 33 33
23 23 23 23 23 23 23 23 22 22 22 22 23 24 24 25 25 25 26 26 26 26 25 25 25 26 26 26 26 26 27 29 30 30 31 32 32 32 33 34 32 31 31 31 32 33 34 35 35 34 35 37 36 35 36 36 35 31 29 30 33 34 33
23 23 23 23 24 24 24 24 24 24 24 25 25 26 27 27 28 28 29 30 30 31 31 30 30 31 32 32 32 31 31 32 32 32 33 33 33 33 35 35 33 33 33 34 34 34 35 36 36 36 38 38 37 37 38 36 34 31 29 31 34 34 33
22 23 24 24 25 26 26 26 27 28 29 30 31 31 31 32 33 33 34 35 35 36 37 37 37 37 38 38 38 38 38 38 37 36 36 36 36 36 36 36 35 34 34 35 36 36 36 37 36 36 37 37 36 37 37 34 32 30 29 31 33 33 33
26 27 28 29 30 31 31 32 33 34 35 36 36 37 38 38 39 39 39 40 41 41 42 43 44 44 43 43 43 43 44 44 42 41 40 40 40 39 38 36 35 35 35 35 36 36 36 37 36 35 34 35 36 37 36 34 31 29 31 33 34 34 33
31 32 33 33 34 35 36 37 37 38 38 39 40 41 42 42 43 43 43 43 44 45 46 47 47 48 48 47 47 47 47 47 45 44 44 44 43 41 39 37 36 35 35 34 34 34 35 36 36 36 35 36 37 37 38 38 35 33 34 36 36 34 32
32 33 34 35 36 36 37 38 39 40 41 42 42 43 44 45 45 46 46 46 46 47 47 48 49 50 51 51 51 50 49 49 48 47 46 46 44 43 41 39 38 37 36 35 34 34 35 36 36 37 37 37 38 39 40 40 38 37 37 37 36 33 31

ECMWFFLT1_700_spd_033.txt.gz
Wind_Speed
10 7 5 5 5 5 5 5 4 2 1 1 2 2 3 3 2 2 2 3 6 8 10 11 11 12 14 14 14 15 14 12 12 12 11 11 10 10 10 9 8 8 8 7 7 8 7 6 7 8 8 8 8 8 8 7 7 8 9 8 8 8 9
10 7 5 4 4 4 4 3 3 2 1 2 3 3 2 3 3 3 2 3 4 6 9 11 11 12 13 14 14 15 14 13 12 11 11 11 11 11 10 9 9 9 8 8 8 8 9 8 7 8 8 9 9 8 8 8 9 9 8 7 7 6 7
8 6 5 4 4 3 3 3 3 2 2 2 3 3 3 3 4 4 4 3 4 6 8 11 12 12 12 13 13 14 13 12 12 11 11 11 11 11 10 9 8 8 8 8 8 8 9 9 9 8 9 9 9 8 8 9 10 10 8 6 6 5 4
8 7 5 4 3 2 2 2 2 1 2 3 3 4 5 6 6 7 6 5 5 6 7 8 11 12 12 12 12 12 12 11 11 10 11 10 10 10 10 10 9 9 10 9 10 9 8 8 8 7 7 8 8 7 8 10 11 9 6 6 6 4 3
10 8 6 5 4 3 2 2 2 2 4 5 6 5 6 7 8 9 9 7 6 6 5 7 9 10 11 12 12 12 12 11 10 9 9 10 10 10 11 11 10 10 11 11 10 9 8 8 8 7 7 8 8 8 9 11 9 6 5 6 6 5 4
12 9 8 6 6 4 4 4 4 5 5 6 6 6 6 7 8 9 9 9 8 6 5 6 8 9 10 10 10 11 11 11 11 10 10 11 11 11 11 10 9 9 10 10 9 8 7 7 7 7 8 8 9 9 9 9 8 5 5 6 6 5 3
13 11 10 9 8 7 6 5 6 7 7 6 6 6 7 8 8 7 7 8 8 7 5 6 7 8 9 9 9 9 10 10 10 10 10 11 11 10 10 9 9 9 8 8 8 7 6 6 5 6 7 7 7 8 9 8 7 6 6 5 4 3 2
15 13 12 11 10 8 7 7 8 9 9 9 8 7 7 8 7 6 6 6 7 7 6 6 7 8 9 9 9 9 9 8 8 8 8 9 9 9 8 8 7 7 6 5 5 5 4 4 4 5 6 6 7 7 8 8 7 6 6 5 3 2 2
16 15 14 13 11 9 8 8 9 9 10 9 8 7 7 7 7 7 7 6 6 7 7 7 8 8 9 9 10 9 7 7 7 6 6 7 7 8 7 6 5 4 3 3 3 3 4 4 5 5 6 7 7 6 6 6 7 6 6 5 4 3 3
17 16 15 13 11 9 9 9 9 9 9 8 6 6 6 7 7 7 8 7 7 7 8 8 9 10 10 10 10 9 7 7 6 6 6 6 7 7 7 6 5 5 5 4 4 4 4 5 5 4 5 6 6 5 4 4 6 6 5 3 2 2 1
18 17 16 14 11 10 9 9 8 8 8 7 6 6 6 7 7 8 8 8 8 8 8 9 11 11 10 10 10 8 7 7 7 7 7 7 7 7 6 6 6 7 6 5 6 5 5 5 4 4 5 5 6 6 6 6 6 5 4 2 1 0 1
20 18 17 15 13 10 8 8 8 9 9 8 8 7 7 8 8 9 9 8 8 9 8 9 10 10 10 10 8 7 7 8 8 9 8 8 7 7 7 7 7 7 7 6 7 6 6 5 4 5 7 7 7 7 7 8 7 5 3 1 1 3 4
21 20 19 17 14 10 9 8 8 9 10 9 9 9 8 9 9 10 9 8 9 9 9 8 8 9 9 9 8 7 7 8 8 8 8 7 7 7 7 7 7 7 7 7 7 7 6 5 4 5 7 7 6 6 6 7 5 4 3 2 3 4 6
22 21 20 17 13 10 9 9 9 10 10 9 9 10 10 9 10 10 10 10 10 10 9 9 8 8 8 8 8 8 8 7 7 6 6 5 4 4 4 5 5 5 5 6 6 6 5 4 4 5 6 6 5 4 5 5 4 4 4 3 4 6 7
23 22 20 16 13 12 10 9 10 10 10 9 9 10 10 10 10 10 11 11 11 10 10 9 9 9 8 8 8 8 7 7 6 5 5 4 3 2 2 3 4 4 4 4 4 5 4 4 4 3 4 4 3 2 1 2 3 4 5 5 5 7 9
23 22 20 17 14 12 11 10 10 10 10 9 10 11 10 10 10 11 13 12 12 11 11 11 11 10 10 10 10 9 8 8 7 6 5 5 4 3 2 3 4 5 6 5 5 5 4 3 2 2 3 3 3 3 3 3 4 5 6 7 7 9 10
25 23 21 18 15 13 11 11 11 11 10 10 11 11 11 11 10 13 14 13 12 12 12 12 12 12 12 12 12 11 10 10 9 8 7 7 6 5 4 4 4 4 4 4 4 4 3 2 1 1 2 3 4 4 4 5 6 7 8 8 9 10 11
28 26 23 20 17 15 13 13 12 12 11 11 11 11 11 11 12 15 15 13 13 12 12 13 12 12 13 12 12 12 12 11 11 11 10 9 8 7 6 5 4 3 2 1 0 0 1 1 2 3 3 4 4 4 5 6 7 8 9 10 11 12 12
29 26 24 22 19 17 14 14 14 13 12 12 10 10 10 10 14 17 14 13 13 12 13 13 13 13 12 12 12 12 12 12 12 12 12 11 9 8 7 6 4 3 2 2 3 3 3 4 5 5 5 5 5 5 5 6 7 9 10 12 13 14 14
25 25 25 23 21 17 14 14 15 14 12 11 10 9 8 11 16 16 14 13 13 12 13 13 13 12 11 11 11 11 11 11 11 11 11 10 9 9 8 7 6 5 5 5 6 6 6 7 7 7 6 7 7 8 8 8 8 9 10 12 14 15 16
21 22 23 22 20 17 14 14 15 14 12 11 10 9 10 13 16 15 14 14 13 13 13 12 12 11 10 10 10 9 10 10 10 10 9 9 9 9 9 8 8 8 8 8 8 9 9 9 9 9 9 9 10 11 12 12 13 13 13 14 15 16 17
20 20 19 18 19 18 16 15 15 14 13 13 12 12 12 14 16 15 15 14 14 13 13 13 13 12 11 11 11 10 10 11 11 11 10 10 10 10 9 9 9 10 10 10 11 11 12 12 13 13 13 14 14 14 15 16 17 17 18 18 19 20 20
19 18 17 18 19 18 17 17 16 15 15 14 13 14 14 15 16 15 15 15 14 14 13 14 14 14 14 14 14 14 13 13 13 13 13 13 12 12 12 12 12 13 13 14 14 15 16 16 17 18 18 19 19 18 18 19 19 20 21 22 22 23 23
18 17 18 21 21 19 18 17 16 17 16 15 14 15 16 16 16 15 16 16 15 15 14 15 16 16 17 17 17 17 17 17 16 16 16 16 15 15 15 15 16 16 17 17 18 19 20 20 21 22 22 23 23 23 23 22 22 23 24 24 25 25 26
16 17 19 21 22 21 19 17 17 18 17 16 15 16 16 17 17 17 17 17 17 17 17 17 17 18 18 18 19 19 20 20 20 20 19 19 19 19 19 19 20 20 21 21 23 24 24 24 24 25 25 25 26 26 25 25 25 26 26 26 27 27 27
14 17 18 21 21 20 19 19 18 18 17 16 16 16 16 17 17 17 18 18 18 18 18 19 20 20 21 21 22 22 23 23 23 23 23 23 23 23 23 23 24 24 25 26 27 27 28 28 28 28 28 27 27 27 27 27 28 28 28 28 29 29 28
14 16 18 20 20 18 18 19 20 19 18 17 16 16 16 16 16 17 18 19 20 20 20 21 22 22 23 24 25 26 26 26 26 26 27 27 27 27 27 28 28 29 29 30 30 31 31 31 31 30 29 29 29 29 30 30 30 30 30 30 30 30 29
16 18 19 20 21 21 21 21 21 21 20 19 18 18 17 17 17 18 19 19 19 19 20 22 23 24 25 26 27 28 28 28 29 29 29 29 29 29 29 30 31 31 32 32 32 32 32 33 33 33 32 32 32 33 32 31 31 31 31 30 30 30 31
18 19 19 20 22 23 23 23 22 23 22 21 20 19 18 19 19 20 20 20 19 20 22 23 24 25 26 28 28 29 30 30 31 31 31 30 30 30 30 31 32 32 33 34 34 34 34 35 36 35 34 34 35 34 33 32 31 31 30 30 31 32 34
19 19 20 22 23 24 24 24 23 22 22 21 20 20 21 22 22 22 22 22 22 22 23 24 25 25 27 28 29 29 29 30 31 31 31 30 30 30 30 29 30 31 32 32 32 33 35 37 38 37 36 37 36 35 34 33 31 30 31 31 33 35 36
20 21 23 24 25 26 25 25 24 23 23 23 23 23 24 25 24 23 23 23 23 23 23 24 25 26 27 28 29 29 29 29 30 30 30 29 29 30 30 30 30 31 31 30 30 31 34 37 39 37 36 36 36 35 36 36 33 31 31 33 35 37 38
22 23 25 27 28 28 28 26 25 25 25 25 26 26 26 26 26 25 25 25 25 24 25 26 26 27 28 29 30 30 30 31 31 31 31 32 32 33 33 34 34 33 33 31 31 31 34 38 41 40 36 35 35 35 36 35 33 32 33 35 37 38 40
23 22 21 21 23 25 27 27 27 27 27 26 26 26 26 26 26 25 25 26 26 26 27 28 28 29 30 31 32 33 33 34 34 33 33 34 35 36 37 37 37 36 34 33 33 34 37 40 41 40 37 35 35 36 35 33 33 34 35 37 38 38 38
22 23 22 22 23 24 24 25 26 26 27 26 26 26 26 26 26 26 26 27 28 29 29 30 30 32 33 34 35 36 36 37 37 37 37 37 38 39 39 39 39 38 37 36 36 37 40 41 42 41 39 36 35 35 34 33 34 36 37 37 37 37 34
21 22 23 24 25 26 26 26 26 26 26 26 27 27 28 29 29 30 31 32 32 33 34 34 35 36 37 38 39 40 41 41 41 41 41 42 42 42 42 42 42 41 40 40 40 40 42 43 44 44 41 37 36 36 36 35 36 37 37 38 38 38 36
23 24 25 26 26 27 28 29 29 29 29 30 30 31 32 34 35 36 37 38 38 39 40 41 41 41 42 42 43 44 45 46 46 46 46 46 46 46 45 45 44 43 43 42 42 42 43 43 43 43 41 38 37 37 36 36 35 36 37 38 38 38 38
27 28 29 29 30 31 31 32 33 33 34 35 35 36 38 39 40 41 41 42 42 43 44 44 45 46 46 47 47 48 49 50 51 51 52 52 52 51 50 49 48 46 46 45 44 45 45 44 44 43 43 41 38 37 36 36 36 36 37 38 38 39 38